Regional Weather Roundup
Issued by NWS

Home | Current Version | Previous Version | Graphics & Text | Print | Product List | Glossary Off
Versions: 1 2 3 4 5 6 7 8 9 10 11 12 13 14 15 16 17 18 19 20 21 22 23 24 25 26 27 28 29 30 31 32 33 34 35 36 37 38 39 40 41 42 43 44 45 46 47 48 49 50

000
ASUS43 KMKX 032221
RWRWI

WISCONSIN REGIONAL WEATHER ROUNDUP
NATIONAL WEATHER SERVICE MILWAUKEE/SULLIVAN WI
500 PM CDT MON AUG 03 2015

NOTE: "FAIR" INDICATES FEW OR NO CLOUDS BELOW 12,000 FEET WITH NO
SIGNIFICANT WEATHER AND/OR OBSTRUCTIONS TO VISIBILITY.

WIZ001-002-006>008-014>016-023>028-032300-
NORTHWEST WISCONSIN

CITY           SKY/WX    TMP DP  RH WIND       PRES   REMARKS
SUPERIOR ARPT  PTSUNNY   71  55  56 NW13G21   29.84F
ASHLAND        CLOUDY    71  55  56 NW5       29.84S
HAYWARD        MOSUNNY   71  51  49 W10G21    29.87S
SIREN          PTSUNNY   73  50  44 W10       29.89R
CUMBERLAND     CLOUDY    72  48  43 NW10G20   29.89S
RICE LAKE      PTSUNNY   73  50  44 W10G18    29.89S
CHETEK         CLOUDY    74  52  47 W6        29.88S
LADYSMITH      CLOUDY    70  54  57 W9        29.89S
EAU CLAIRE     MOSUNNY   77  48  35 NW16G22   29.87S
MENOMONIE      SUNNY     76  46  34 W13G21    29.88S
NEW RICHMOND   MOSUNNY   75  49  39 NW12      29.89F
OSCEOLA        PTSUNNY   76  51  41 W13       29.91S
$$

WIZ003>005-009-010-017-018-032300-
NORTH CENTRAL WISCONSIN

CITY           SKY/WX    TMP DP  RH WIND       PRES   REMARKS
MANITOWISH WTR PTSUNNY   67  53  60 NW9G18    29.85S
ARBOR VITAE    PTSUNNY   67  54  62 NW8       29.85S
WOODRUFF       PTSUNNY   67  54  62 NW8       29.85S
RHINELANDER    PTSUNNY   68  52  56 W12G21    29.86R
EAGLE RIVER    PTSUNNY   66  50  56 NW10      29.84S
LAND O LAKES   CLOUDY    66  50  57 NW7       29.85S
PHILLIPS       CLOUDY    66  54  65 W6        29.87R
TOMAHAWK       CLOUDY    67  54  61 W7        29.86S
MEDFORD        CLOUDY    68  54  59 NW10G17   29.88R
MERRILL        NOT AVBL
$$

WIZ029-030-035-036-043>047-032300-
CENTRAL WISCONSIN

CITY           SKY/WX    TMP DP  RH WIND       PRES   REMARKS
WAUSAU         MOSUNNY   74  52  46 W16G23    29.83S
MOSINEE        PTSUNNY   72  52  49 NW21G29   29.86S
MARSHFIELD     PTSUNNY   75  52  44 NW16G23   29.86S
STEVENS POINT  PTSUNNY   73  52  48 NW10G18   29.85S
WAUPACA        PTSUNNY   78  51  39 NW17      29.83S
WAUTOMA        PTSUNNY   80  47  31 NW17      29.84R
WISC RAPIDS    PTSUNNY   76  49  38 NW14      29.86S
CAMP DOUGLAS   MOSUNNY   79  52  38 W13G25    29.86S
$$

WIZ011>013-019>022-031-037>040-048>050-032300-
NORTHEAST WISCONSIN

CITY           SKY/WX    TMP DP  RH WIND       PRES   REMARKS
ANTIGO         CLOUDY    67  53  59 NW8       29.85R
SHAWANO        CLOUDY    74  53  47 NW10      29.82R
OCONTO         SUNNY     75  52  43 NW10G16   29.79R
STURGEON BAY   CLOUDY    72  54  53 NW8       29.82R
GREEN BAY      PTSUNNY   74  54  49 W13G20    29.80R
MANITOWOC      PTSUNNY   76  49  38 MISG      29.80S
APPLETON       PTSUNNY   73  48  40 NW14G23   29.82S
CLINTONVILLE   CLOUDY    73  48  40 NW13G22   29.82R
OSHKOSH        PTSUNNY   76  50  40 W14       29.82R
$$

WIZ032>034-041-042-053>061-032300-
SOUTHWEST WISCONSIN

CITY           SKY/WX    TMP DP  RH WIND       PRES   REMARKS
LA CROSSE      SUNNY     81  52  36 NW14      29.87S HX  80
SPARTA         MOSUNNY   79  44  29 NW13G18   29.88S
VIROQUA        SUNNY     76  50  40 W9G21     29.90S
BOSCOBEL       SUNNY     83  52  34 W13       29.88S HX  82
PRAIRIE DU CHI SUNNY     81  44  27 NW10      29.88F HX  80
PLATTEVILLE    SUNNY     78  50  36 W15G22    29.90S
$$

WIZ056-057-062-063-064-067-068-032300-
SOUTH CENTRAL WISCONSIN

CITY           SKY/WX    TMP DP  RH WIND       PRES   REMARKS
REEDSBURG      MOSUNNY   79  49  35 NW14G20   29.86S
BARABOO/DELLS  MOSUNNY   79  44  29 NW15      29.87R
LONE ROCK      SUNNY     81  48  31 NW13      29.87S HX  80
MINERAL POINT  SUNNY     79  45  29 W12G17    29.89S
MADISON        MOSUNNY   79  49  34 NW13G18   29.85S
MIDDLETON      SUNNY     81  43  26 NW12G17   29.87R
WATERTOWN      SUNNY     78  51  38 NW13G22   29.84S
MONROE         SUNNY     79  46  31 W18G24    29.88S
JANESVILLE     MOSUNNY   82  45  26 W14G21    29.86S HX  80
$$

WIZ051-052-058>065-066-070>072-032300-
SOUTHEAST WISCONSIN

CITY           SKY/WX    TMP DP  RH WIND       PRES   REMARKS
MILWAUKEE      MOSUNNY   81  47  30 W15G22    29.83S HX  80
WAUKESHA       MOSUNNY   79  46  31 W18G29    29.85S
MILWAUKEE/TIMM MOSUNNY   81  43  26 W14G24    29.84R
RACINE         SUNNY     80  48  32 W13G20    29.85S
BURLINGTON     MOSUNNY   78  45  31 W14       29.86R
KENOSHA        MOSUNNY   78  53  41 W12G17    29.85S
FOND DU LAC    PTSUNNY   78  51  38 NW13      29.82S
SHEBOYGAN      MOSUNNY   77  52  41 W10G20    29.81S
WEST BEND      PTSUNNY   79  45  29 W14G21    29.83R
JUNEAU         PTSUNNY   77  51  40 W14G20    29.85S
$$

LSZ147-162-032300-
LAKE SUPERIOR

STATION/POSITION TIME  TEMP    WIND        PRES    WAVE
                       AIR SEA DIR/SP/G            HT/PER
                 (UTC) (F)     (DEG/KT/KT) (MB)    (FT/S)
W MID LAKE BUOY  2150   59 56  240/ 10/ 12 1008.4R   1/ 3
DEVILS ISLAND    2200   60     270/ 16/ 19 1009.9R
PORT WING        2140   69     250/  9/ 12 1010.2F
SAXON HARBOR     2140   71     300/ 10     1009.8S
$$

LMZ867-665-643>646-032300-
LAKE MICHIGAN

STATION/POSITION TIME  TEMP    WIND        PRES    WAVE
                       AIR SEA DIR/SP/G            HT/PER
                 (UTC) (F)     (DEG/KT/KT) (MB)    (FT/S)
CHAMBERS ISLAND  2100   71     300/ 11/ 15 1008.1R
S GREEN BAY BUOY 2200   71 70  310/ 12/ 14 1010.1
N MID LAKE BUOY  2150   65 68  320/ 10/ 12 1008.0R   2/ 3
NORTHPORT PIER   2100   67     360/ 12/ 17 1008.1R
SISTER BAY       2118   71     340/ 17/ 19   N/A
ALGOMA LAKESHORE 2142          330/  6/ 10   N/A
KEWAUNEE LAKESHO 2100   75     310/ 10/ 14 1008.1F
SHEBOYGAN LAKESH 2200   77     300/ 13/ 17 1009.4R
PORT WASHINGTON  2140   80     290/  7/ 16 1010.2R
ATWATER BUOY     2200   69 48  300/ 16/ 17 1011.5R
MILWAUKEE LAKESH 2200   78     300/ 14/ 22   N/A
KENOSHA   LAKESH 2200   79     290/ 12/ 19 1010.2R
$$

TC  - TEMPERATURE IN CELSIUS
VSB - VISIBILITY IN STATUTE MILES
WCI - WIND CHILL INDEX
HX  - HEAT INDEX




USA.gov is the U.S. government's official web portal to all federal, state and local government web resources and services.